Location: Big Meadow
(36.7100°N, 118.8650°W)
Time: 20:22:04
(UTC-08:00)

Daily predictions for brighter satellites

Satellite Brightness Start Highest point End
(mag) Time Altitude Azimuth Time Altitude Azimuth Time Altitude Azimuth
USA 215 3.3 16:55:19 10° ESE 17:01:46 63° NE 17:08:12 10° NW
Cosmos 1455 Rocket 3.9 17:00:51 10° NNE 17:04:44 29° ENE 17:08:33 10° SE
SMAP 3.4 17:00:40 10° SE 17:05:04 45° ENE 17:09:31 10° N
Cosmos 1932 4.5 17:01:32 10° NNW 17:07:54 70° ENE 17:14:05 10° SE
Cosmos 1544 Rocket 4.1 17:04:46 10° NNE 17:08:46 34° ENE 17:12:43 10° SE
Meteor 2-4 Rocket 4.4 17:05:21 10° SSE 17:10:09 32° E 17:14:52 10° NNE
YAOGAN 1 3.5 17:07:40 10° SE 17:11:14 26° ENE 17:14:49 10° NNE
SJ-12 4.4 17:09:14 10° S 17:13:20 68° W 17:17:25 10° NNW
Delta 2 Rocket 4.1 17:10:09 10° W 17:15:50 80° S 17:21:02 10° E
ALOS 3.6 17:14:39 10° ESE 17:17:41 17° ENE 17:20:44 10° NNE
Cosmos 1607 4.3 17:11:14 10° NNW 17:17:43 76° WSW 17:24:06 10° SSE
Hubble Space Telescope 2.6 17:16:15 10° WSW 17:19:43 26° S 17:23:11 10° SE
SJ-7 4.3 17:16:49 10° SSE 17:20:49 81° ENE 17:24:49 10° N
CSL-04 Debris 4.1 17:15:29 10° SSE 17:20:51 75° ENE 17:26:14 10° N
IRAS Rocket 4.2 17:15:41 10° SSE 17:21:10 84° ENE 17:26:40 10° NNW
Cosmos 1428 Rocket 4.4 17:15:09 10° N 17:21:21 77° E 17:27:26 10° S
USA 116 3.6 17:18:50 10° NNE 17:21:51 40° E 17:24:46 10° S
Ariane Rocket 2.9 17:17:01 10° SSE 17:22:03 73° ENE 17:27:06 10° N
Cosmos 389 Rocket 2.3 17:19:38 10° N 17:23:07 71° E 17:26:33 10° SSE
Cosmos 2369 4.1 17:19:35 10° S 17:24:55 45° ESE 17:30:18 10° NE
Cosmos 2278 4.1 17:21:00 10° S 17:26:18 43° ESE 17:31:40 10° NE
USA 161 4.5 17:25:20 10° NNW 17:27:13 16° WNW 17:29:09 10° WSW
COSMO-SKYMED 1 3.3 17:24:20 10° NNE 17:28:16 33° E 17:32:11 10° SSE
Abrixas rocket 4.4 17:28:48 10° WNW 17:31:01 17° NNW 17:33:13 10° NNE
Meteor 1-28 Rocket 3.2 17:28:02 10° N 17:31:48 88° WNW 17:35:34 10° SSW
Cosmos 1125 Rocket 3.8 17:27:30 10° S 17:32:35 49° ESE 17:37:40 10° NNE
ISS -2.9 17:31:06 10° NNW 17:34:03 29° NNE 17:36:03 16° E
Cosmos 2279 Rocket 4.4 17:27:57 10° SSW 17:34:10 71° W 17:40:26 10° N
Cosmos 1975 Rocket 4.4 17:30:13 10° SSW 17:34:26 41° W 17:38:42 10° N
EO 1 Del DPAF 4.1 17:31:48 10° NE 17:35:11 29° E 17:38:32 10° SSE
Meteor 1-19 Rocket 4.2 17:30:00 10° S 17:35:38 85° E 17:41:26 10° N
SJ 16-02 1.6 17:32:17 10° S 17:36:28 46° ESE 17:40:41 10° NNE
Cosmos 1743 2.8 17:34:40 10° N 17:38:34 85° W 17:42:27 10° S
CSL-04 Rocket 4.2 17:35:11 10° S 17:40:32 65° WSW 17:46:00 10° NNW
FENGYUN 3A 4.3 17:37:03 10° SE 17:41:47 33° ENE 17:46:31 10° N
BREEZE-M DEB (TANK) 2.9 17:39:39 10° NW 17:42:35 65° NE 17:52:02 10° ESE
Cosmos 1048 Rocket 4.5 17:39:12 10° N 17:44:14 38° ENE 17:49:12 10° SE
PSLV R/B 3.3 17:43:14 10° W 17:46:22 56° NNW 17:47:56 25° NE
METEOR-M 4.1 17:42:23 10° SSE 17:47:38 62° ENE 17:52:54 10° N
Cosmos 1697 Rocket 3.2 17:43:48 10° S 17:49:00 40° ESE 17:53:01 16° NE
USA 238 DEB 3.7 17:47:53 10° NNW 17:55:00 68° NE 18:02:09 10° SE
USA 238 3.7 17:48:00 10° NNW 17:55:06 67° NE 18:02:15 10° SE
DELTA 2 R/B (1) 3.7 17:49:58 10° W 17:55:31 65° N 17:58:57 23° ENE
Cosmos 372 Rocket 3.9 17:52:52 10° SSW 17:58:05 83° ESE 18:03:17 10° NNE
MOS 1 4.3 17:52:44 10° SSE 17:58:20 62° ENE 18:03:56 10° N
SKYMED 3 4.5 17:54:04 10° NNE 17:58:26 77° ESE 18:02:45 10° S
Landsat 4 3.8 17:54:43 10° N 17:58:33 81° WNW 18:02:21 10° SSW
Cosmos 2082 3.7 17:54:10 10° NNW 17:59:42 55° ENE 18:05:12 10° SE
Cosmos 1536 Rocket 3.8 17:58:13 10° SSW 18:02:33 70° W 18:06:54 10° N
Cosmos 1025 Rocket 3.5 17:59:49 10° SSE 18:03:48 38° E 18:05:19 28° NE
Cosmos 1271 Rocket 4.3 18:03:39 10° NNW 18:07:11 37° W 18:10:43 10° SSW
ERS-2 2.0 18:05:01 10° SSE 18:08:38 67° ENE 18:12:17 10° N
Cosmos 2227 Rocket 2.2 18:07:20 10° NNW 18:13:02 88° WSW 18:18:40 10° SSE
MONITOR-E 4.0 18:11:52 10° S 18:14:54 85° WSW 18:17:58 10° NNW
Meteor 1-23 Rocket 4.2 18:10:31 10° S 18:16:18 88° E 18:22:03 10° N
SKYMED 2 3.9 18:12:06 10° N 18:16:24 65° WNW 18:20:40 10° SSW
Atlas Centaur 2 3.1 18:14:36 10° WSW 18:19:06 31° SSW 18:21:33 18° SE
RESURS DK-1 4.4 18:20:08 10° SSE 18:21:11 15° SE 18:21:11 15° SE
NOSS 3-2 (A) 4.0 18:17:35 10° NNW 18:25:10 64° NE 18:33:21 10° SE
Cosmos 724 4.1 18:20:53 10° NNW 18:26:42 77° ENE 18:32:31 10° SSE
Cosmos 2084 3.4 18:23:37 10° SSW 18:27:46 56° ESE 18:27:46 56° ESE
Cosmos 1980 Rocket 2.3 18:23:36 10° S 18:29:02 51° ESE 18:30:16 43° ENE
NOSS 3-2 (C) 4.1 18:24:03 10° NNW 18:31:31 54° NE 18:36:34 24° ESE
CZ-4 R/B 4.1 18:31:59 10° SW 18:34:48 19° W 18:37:40 10° NW
ATLAS 2AS CENTAUR R/B 4.4 18:29:01 10° WSW 18:35:50 31° NW 18:42:54 10° NNE
OAO 1 Rocket 4.4 18:32:22 10° W 18:37:41 75° S 18:38:49 55° ESE
Cosmos 2297 Rocket 2.7 18:34:21 10° NNW 18:39:56 61° WSW 18:45:29 10° S
SPOT 3 Rocket 3.8 18:35:14 10° S 18:40:23 68° WSW 18:45:32 10° NNW
H-2A R/B 3.6 18:38:40 10° SSW 18:39:53 19° S 18:39:53 19° S
ATLAS 3B R/B 3.1 18:36:14 10° NW 18:42:42 59° WSW 18:49:01 10° SSE
S3M 4.1 18:47:37 10° SSE 18:52:39 51° SE 18:52:39 51° SE
Okean 2 4.3 18:49:57 10° SSW 18:53:55 48° W 18:54:46 40° NW
ALOS 3.4 18:50:20 10° S 18:54:45 42° W 18:59:11 10° NNW
Thor Agena Rocket 3.4 18:56:21 78° SE 18:56:21 78° SE 19:01:27 10° S
NOSS 3-4 (A) 3.7 18:50:18 10° SW 18:56:27 65° NW 18:58:48 39° NNE
NOSS 3-4 (C) 3.7 18:50:23 10° SW 18:56:32 66° NW 18:58:51 40° NNE
Delta 2 Rocket 4.5 18:53:13 10° W 18:58:23 46° SSW 18:58:55 45° S
Hubble Space Telescope 3.0 18:57:33 10° WSW 19:00:23 18° SSW 19:00:29 18° SSW
SL-16 R/B 4.4 19:02:39 10° SSE 19:03:07 12° SSE 19:03:07 12° SSE
ISS -0.8 19:07:42 10° WNW 19:08:47 17° W 19:08:47 17° W
Cosmos 2344 4.2 19:03:46 10° S 19:09:06 37° SE 19:09:06 37° SE
Cosmos 2360 4.2 19:05:20 10° SSW 19:11:02 77° WNW 19:11:07 77° WNW
Cosmos 2322 Rocket 4.5 19:09:04 10° S 19:09:20 11° S 19:09:20 11° S
SJ 16-02 4.1 19:12:58 10° W 19:15:19 14° WNW 19:17:41 10° NNW
CENTAUR R/B 3.6 19:17:37 10° NNW 19:23:13 43° N 19:23:13 43° N
Cosmos 1553 Rocket 4.3 19:21:54 10° SSW 19:28:14 67° W 19:29:04 60° NW
Cosmos 1697 Rocket 4.5 19:28:22 10° WSW 19:33:03 26° WNW 19:34:48 22° NNW
Cosmos 1980 Rocket 4.4 20:09:02 10° WSW 20:12:05 20° WNW 20:12:05 20° WNW
